« Back
NWS Peachtree City, Ga » Text Product » GA Regional Weather Roundup


Printer-friendly Version
Current Version              Previous Versions:   1  2  3  4  5  6  7  8  9  

Regional Weather Roundup

693
ASUS42 KFFC 020703
RWRGA
WEATHER ROUNDUP FOR GEORGIA
NATIONAL WEATHER SERVICE PEACHTREE CITY GA
300 AM EDT THU OCT 02 2014

NOTE: "FAIR" INDICATES FEW OR NO CLOUDS BELOW 12,000 FEET WITH NO
SIGNIFICANT WEATHER AND/OR OBSTRUCTIONS TO VISIBILITY.

* = USE WITH CAUTION. THE STATIONS MARKED WITH AN ASTERISK MAY NOT
REPORT WEATHER SUCH AS PRECIPITATION, FOG, OR THUNDER AND ARE NOT
QUALITY CONTROLLED BY NWS.

THE REMARK "TC" DENOTES TEMPERATURE READING IN DEGREES CELSIUS.

GAZ001>058-020800-
NORTH GEORGIA

CITY           SKY/WX    TMP DP  RH WIND       PRES   REMARKS
ATLANTA        CLEAR     67  62  84 CALM      30.04S
ATHENS         CLEAR     62  59  90 CALM      30.05R
CHAMBLEE       CLEAR     61  58  90 CALM      30.05S
PEACHTREE CITY CLEAR     61  59  93 CALM      30.06R FOG
ROME           CLEAR     60  59  96 CALM      30.03R
WEST ATLANTA   CLEAR     62  60  93 CALM      30.04S
GAINESVILLE    CLEAR     65  61  87 CALM      30.08S
CARTERSVILLE   CLEAR     59  58  96 CALM      30.04S


CITY           SKY/WX    TMP DP  RH WIND       PRES   REMARKS
DALTON*        CLEAR     59  59 100 CALM      30.03F FOG
MARIETTA       CLEAR     64  62  93 CALM      30.05S
$$

GAZ059>098-102>109-020800-
CENTRAL GEORGIA

CITY           SKY/WX    TMP DP  RH WIND       PRES   REMARKS
AUGUSTA-BUSH   PTCLDY    59  58  96 CALM      30.04S FOG
AUGUSTA-DANIEL CLEAR     67  63  87 SE6       30.05F
COLUMBUS       CLEAR     67  64  90 CALM      30.02S
MACON          FOG       63  63 100 CALM      30.03S VSB 1
ROBINS AFB     CLEAR     66  65  98 SE2       30.03S


CITY           SKY/WX    TMP DP  RH WIND       PRES   REMARKS
LAGRANGE*      CLEAR     64  64  97 CALM      30.04R
SYLVANIA*      CLEAR     66  65  98 CALM      30.05S FOG
MILLEDGEVILLE* CLEAR     64  64 100 CALM      30.04R
$$

GAZ099>101-110>166-020800-
SOUTH GEORGIA

CITY           SKY/WX    TMP DP  RH WIND       PRES   REMARKS
SAVANNAH       PTCLDY    65  63  93 CALM      30.04S
VALDOSTA       CLEAR     67  65  93 CALM      30.02S FOG
ALMA           MOCLDY    66  65  96 CALM      30.03S FOG
ST SIMONS      CLOUDY    70  68  93 CALM      30.01S
FT STEWART     PTCLDY    63  61  94 CALM      30.02S
ALBANY         CLEAR     68  66  93 CALM      30.04S
HUNTER AFB     PTCLDY    65  64  98 NW2       30.02R
MOODY AFB      CLOUDY    69  67  95 NE1       30.02S
BRUNSWICK      CLOUDY    68  64  88 CALM      30.03S


CITY           SKY/WX    TMP DP  RH WIND       PRES   REMARKS
BAINBRIDGE*    CLEAR     68  68 100 CALM      30.02S
MOULTRIE*      CLEAR     68  68 100 CALM      30.04R
VIDALIA*       CLEAR     64  64 100 CALM      30.04F
WAYCROSS*      PTCLDY    71  70  99 CALM      30.02F
DOUGLAS*       MOCLDY    68  66  94 CALM      30.05S
$$



USA.gov is the U.S. government's official web portal to all federal, state and local government web resources and services.